I2HLY-3 Weather Reports


Display with metric or nautical units.
time (UTC)temp
F
wind
direction
speed
MPH
gust
MPH
rain 1hr
in
rain 24hr
in
rain mn
in
humidity
%
barometer
mb
20260905120228 89 314 2.0 10.0 0.00 0.00 0.00 50 1015.1
20260905114732 89 288 3.0 6.0 0.00 0.00 0.00 51 1015.2
20260905113238 90 201 4.0 9.0 0.00 0.00 0.00 51 1015.3
20260905111737 89 243 3.0 9.0 0.00 0.00 0.00 50 1015.4
20260905110224 89 243 4.0 8.0 0.00 0.00 0.00 49 1015.4
20260905104736 88 165 3.0 8.0 0.00 0.00 0.00 51 1015.4
20260905103235 89 306 3.0 8.0 0.00 0.00 0.00 51 1015.5
20260905101728 88 199 4.0 7.0 0.00 0.00 0.00 53 1015.6
20260905100236 88 169 2.0 5.0 0.00 0.00 0.00 51 1015.6
20260905094724 87 180 4.0 7.0 0.00 0.00 0.00 52 1015.6
20260905093223 86 196 2.0 5.0 0.00 0.00 0.00 59 1015.6
20260905091730 85 157 3.0 5.0 0.00 0.00 0.00 58 1015.7
20260905090225 85 290 1.0 3.0 0.00 0.00 0.00 55 1015.7
20260905084738 83 292 0.0 2.0 0.00 0.00 0.00 61 1015.7
20260905083235 82 292 2.0 3.0 0.00 0.00 0.00 63 1015.5
20260905081731 82 292 1.0 4.0 0.00 0.00 0.00 60 1015.4
20260905080228 81 229 1.0 3.0 0.00 0.00 0.00 59 1015.4
20260905074736 80 229 1.0 1.0 0.00 0.00 0.00 63 1015.3
20260905073222 80 229 1.0 3.0 0.00 0.00 0.00 61 1015.2
20260905071719 80 229 1.0 2.0 0.00 0.00 0.00 62 1015.2
20260905070228 80 229 0.0 2.0 0.00 0.00 0.00 61 1015.2
20260905064724 78 229 1.0 3.0 0.00 0.00 0.00 67 1015.2
20260905063237 75 231 2.0 3.0 0.00 0.00 0.00 76 1015.2
20260905061723 71 311 0.0 0.0 0.00 0.00 0.00 82 1015.2
20260905060235 69 311 0.0 0.0 0.00 0.00 0.00 85 1015.1
20260905054738 66 312 0.0 0.0 0.00 0.00 0.00 91 1015.1
20260905053222 63 311 0.0 0.0 0.00 0.00 0.00 91 1015.0
20260905051720 63 311 0.0 2.0 0.00 0.00 0.00 91 1014.9
20260905050225 63 312 0.0 0.0 0.00 0.00 0.00 91 1014.6
20260905044738 63 312 0.0 0.0 0.00 0.00 0.00 91 1014.3
20260905043225 63 312 0.0 0.0 0.00 0.00 0.00 90 1014.3
20260905041734 64 311 0.0 0.0 0.00 0.00 0.00 89 1014.2
20260905040221 64 311 0.0 0.0 0.00 0.00 0.00 89 1014.3
20260905034725 64 312 0.0 0.0 0.00 0.00 0.00 89 1014.4
20260905033226 64 312 0.0 0.0 0.00 0.00 0.00 88 1014.5
20260905031722 64 311 0.0 0.0 0.00 0.00 0.00 89 1014.5
20260905030232 64 311 0.0 0.0 0.00 0.00 0.00 88 1014.6
20260905024726 64 311 0.0 0.0 0.00 0.00 0.00 87 1014.5
20260905023237 64 311 1.0 2.0 0.00 0.00 0.00 86 1014.7
20260905021728 65 311 0.0 0.0 0.00 0.00 0.00 85 1014.8
20260905020237 65 311 0.0 2.0 0.00 0.00 0.00 84 1014.8
20260905014728 65 311 0.0 2.0 0.00 0.00 0.00 84 1014.8
20260905013228 66 312 0.0 2.0 0.00 0.00 0.00 83 1014.9
20260905011734 66 311 1.0 2.0 0.00 0.00 0.00 81 1014.8
20260905010236 67 311 0.0 2.0 0.00 0.00 0.00 81 1014.8
20260905004727 67 311 0.0 3.0 0.00 0.00 0.00 79 1015.0
20260905003230 68 311 0.0 2.0 0.00 0.00 0.00 78 1015.0
20260905001730 68 311 0.0 2.0 0.00 0.00 0.00 78 1015.1
20260905000223 68 311 2.0 5.0 0.00 0.00 0.00 76 1015.2
20260904233235 72 314 1.0 2.0 0.00 0.00 0.00 67 1015.3
20260904231736 73 314 2.0 4.0 0.00 0.00 0.00 65 1015.4
20260904230222 71 317 4.0 8.0 0.00 0.00 0.00 67 1015.5
20260904224730 69 308 1.0 3.0 0.00 0.00 0.00 74 1015.3
20260904223228 70 308 2.0 4.0 0.00 0.00 0.00 71 1015.4
20260904221724 70 307 2.0 3.0 0.00 0.00 0.00 69 1015.4
20260904220220 71 311 2.0 4.0 0.00 0.00 0.00 71 1015.5
20260904214729 71 325 2.0 5.0 0.00 0.00 0.00 68 1015.5
20260904213234 71 309 2.0 4.0 0.00 0.00 0.00 69 1015.7
20260904211733 72 321 1.0 3.0 0.00 0.00 0.00 70 1015.6
20260904210235 72 320 2.0 3.0 0.00 0.00 0.00 69 1015.7
20260904204738 73 320 2.0 4.0 0.00 0.00 0.00 70 1015.8
20260904203225 73 316 3.0 4.0 0.00 0.00 0.00 64 1015.8
20260904201730 74 313 1.0 3.0 0.00 0.00 0.00 67 1015.8
20260904200238 74 304 2.0 3.0 0.00 0.00 0.00 71 1015.7
20260904194733 74 271 1.0 2.0 0.00 0.00 0.00 74 1015.6
20260904193237 75 271 0.0 3.0 0.00 0.00 0.00 74 1015.7
20260904191724 75 189 1.0 3.0 0.00 0.00 0.00 74 1015.7
20260904190225 76 188 1.0 2.0 0.00 0.00 0.00 72 1015.5
20260904184727 77 188 0.0 0.0 0.00 0.00 0.00 70 1015.3
20260904183225 78 188 0.0 1.0 0.00 0.00 0.00 65 1015.2
20260904181739 80 188 1.0 2.0 0.00 0.00 0.00 63 1015.1
20260904180221 81 188 0.0 1.0 0.00 0.00 0.00 57 1015.0
20260904174737 83 188 1.0 2.0 0.00 0.00 0.00 58 1014.8
20260904173229 85 188 0.0 2.0 0.00 0.00 0.00 55 1014.7
20260904171729 88 188 1.0 2.0 0.00 0.00 0.00 49 1014.7
20260904170238 91 188 1.0 3.0 0.00 0.00 0.00 42 1014.8
20260904164734 92 188 2.0 3.0 0.00 0.00 0.00 40 1014.9
20260904163224 92 232 1.0 4.0 0.00 0.00 0.00 39 1014.8
20260904161731 92 232 2.0 4.0 0.00 0.00 0.00 37 1014.9
20260904160227 92 225 3.0 6.0 0.00 0.00 0.00 38 1014.9
20260904154722 91 168 3.0 5.0 0.00 0.00 0.00 38 1015.1
20260904153224 91 313 1.0 4.0 0.00 0.00 0.00 40 1015.2
20260904151727 90 212 2.0 4.0 0.00 0.00 0.00 42 1015.3
20260904150229 90 291 2.0 3.0 0.00 0.00 0.00 45 1015.4
20260904144727 90 291 0.0 4.0 0.00 0.00 0.00 44 1015.5
20260904143233 90 138 1.0 4.0 0.00 0.00 0.00 44 1015.5
20260904141734 89 140 4.0 7.0 0.00 0.00 0.00 44 1015.8
20260904140222 89 282 2.0 5.0 0.00 0.00 0.00 44 1015.9
20260904134728 89 213 3.0 5.0 0.00 0.00 0.00 45 1016.0
20260904133225 89 77 4.0 6.0 0.00 0.00 0.00 46 1016.1
20260904131735 89 90 2.0 9.0 0.00 0.00 0.00 45 1016.3
20260904130222 89 159 3.0 8.0 0.00 0.00 0.00 46 1016.4
20260904124736 89 236 2.0 7.0 0.00 0.00 0.00 47 1016.6
20260904123228 89 178 4.0 6.0 0.00 0.00 0.00 48 1016.7
20260904121721 89 75 1.0 4.0 0.00 0.00 0.00 47 1016.8